Location: �terpigny
(49.8910°N, 2.9249°E)
Time: 23:12:29
(UTC+00:00)

Cosmos 1908 - Pass Details

Date: 01 June 2022
Orbit: 505 x 524 km, 82.5° (Epoch: 01 July)

Event Time Altitude Azimuth Distance (km) Brightness Sun altitude
Rises 21:58:13 0° 2° (N) 2,623 7.9 -14.1°
Reaches altitude 10° 22:00:54 10° 22° (NNE) 1,731 6.5 -14.3°
Maximum altitude 22:03:34 18° 67° (ENE) 1,299 5.2 -14.4°
Enters shadow 22:05:30 13° 103° (ESE) 1,539 5.2 -14.6°
